Altus AFB, OK

2:43 AM CST on January 22, 2017 (GMT -0600)
Altus Air Force Base

Weather History for KLTS - November, 2014

Change the Weather History Date:

Thursday, November 6, 2014

  Actual Average Record
Temperature  
Mean Temperature 55 °F -  
Max Temperature 68 °F 62 °F 80 °F (2001)
Min Temperature 42 °F 41 °F 33 °F (1997)
Degree Days  
Heating Degree Days 10    
Growing Degree Days 5 (Base 50)    
Moisture  
Dew Point 40 °F    
Average Humidity 66    
Maximum Humidity 92    
Minimum Humidity 30    
Precipitation  
Precipitation 0.00 in - - ()
Sea Level Pressure  
Sea Level Pressure 30.36 in    
Wind  
Wind Speed 7 mph (North)    
Max Wind Speed 16 mph    
Max Gust Speed 21 mph    
Visibility 9 miles    
Events      
Averages and records for this station are not official NWS values.
T = Trace of Precipitation, MM = Missing Value Source: NWS Daily Summary

Daily Weather History Graph

Daily Weather History Graph

Search for Another Location

Airport or City:

Trip Planner

Search our weather history database for the weather conditions in past years. The results will help you decide how hot, cold, wet, or windy it might be!

Date:

Astronomy

Nov. 06, 2014 Rise Set
Actual Time 7:02 AM CST 5:38 PM CST
Civil Twilight 6:35 AM CST 6:05 PM CST
Nautical Twilight 6:05 AM CST 6:35 PM CST
Astronomical Twilight 5:36 AM CST 7:04 PM CST
Moon 5:46 PM CST (11/6) 6:37 AM CST (11/6)
Length of Visible Light 11h 29m
Length of Day
10h 36m
Full, 100% of the Moon is Illuminated
Nov 6
Full
Nov 6
Full
Nov 14
Last Quarter
Nov 22
New
Nov 29
First Quarter

Hourly Weather History & Observations

Time (CST) Temp. Windchill Dew Point Humidity Pressure Visibility Wind Dir Wind Speed Gust Speed Precip Events Conditions
12:58 AM 46.6 °F - 41.5 °F 83% 30.30 in 10.0 mi NW 3.5 mph - N/A   Clear
1:58 AM 46.6 °F - 42.1 °F 84% 30.29 in 10.0 mi NNW 9.2 mph - N/A   Clear
2:58 AM 43.7 °F 40.3 °F 41.4 °F 91% 30.30 in 10.0 mi NW 5.8 mph - N/A   Clear
3:58 AM 42.1 °F 38.4 °F 39.9 °F 92% 30.31 in 10.0 mi North 5.8 mph - N/A   Clear
4:58 AM 43.2 °F 40.5 °F 38.7 °F 84% 30.33 in 10.0 mi NW 4.6 mph - N/A   Clear
5:58 AM 44.2 °F 39.2 °F 39.7 °F 84% 30.35 in 10.0 mi NW 9.2 mph - N/A   Clear
6:58 AM 43.5 °F 39.4 °F 39.4 °F 85% 30.39 in 10.0 mi NNW 6.9 mph - N/A   Clear
7:58 AM 48.2 °F - 39.9 °F 73% 30.42 in 10.0 mi NW 8.1 mph - N/A   Clear
8:58 AM 52.9 °F - 42.3 °F 67% 30.43 in 10.0 mi NNW 9.2 mph - N/A   Clear
9:58 AM 60.8 °F - 38.5 °F 44% 30.42 in 10.0 mi NNE 12.7 mph - N/A   Clear
10:58 AM 63.1 °F - 37.9 °F 39% 30.43 in 10.0 mi NNE 12.7 mph - N/A   Clear
11:58 AM 65.3 °F - 38.8 °F 38% 30.42 in 10.0 mi NE 16.1 mph - N/A   Clear
12:58 PM 66.4 °F - 39.4 °F 37% 30.39 in 10.0 mi NNE 13.8 mph 20.7 mph N/A   Clear
1:58 PM 68.0 °F - 37.4 °F 33% 30.36 in 9.0 mi NNE 11.5 mph - N/A   Clear
2:58 PM 68.7 °F - 35.6 °F 30% 30.36 in 10.0 mi NE 10.4 mph - N/A   Clear
3:58 PM 67.1 °F - 35.1 °F 31% 30.38 in 10.0 mi NNE 9.2 mph - N/A   Clear
4:58 PM 64.9 °F - 38.7 °F 38% 30.36 in 10.0 mi NE 5.8 mph - N/A   Clear
5:58 PM 54.9 °F - 43.7 °F 66% 30.35 in 8.0 mi NE 6.9 mph - N/A   Clear
6:03 PM 51.8 °F - 42.8 °F 71% 30.35 in 7.0 mi NNE 6.9 mph - N/A   Clear
6:58 PM 47.7 °F - 41.9 °F 80% 30.37 in 10.0 mi NNE 8.1 mph - N/A   Clear
7:58 PM 47.1 °F - 41.5 °F 81% 30.37 in 8.0 mi NE 6.9 mph - N/A   Clear
8:58 PM 48.4 °F - 39.7 °F 72% 30.36 in 10.0 mi NE 2.3 mph - N/A   Clear
9:58 PM 45.5 °F - 39.7 °F 80% 30.36 in 7.0 mi Calm Calm - N/A   Clear
10:58 PM 44.8 °F 43.3 °F 39.6 °F 82% 30.35 in 5.0 mi South 3.5 mph - N/A   Haze
11:06 PM 46.4 °F - 39.2 °F 76% 30.34 in 10.0 mi South 2.3 mph - N/A   Clear
11:58 PM 44.1 °F 42.5 °F 40.1 °F 86% 30.33 in 5.0 mi South 3.5 mph - N/A   Haze